| time (UTC) | temp F | wind direction | speed knots | gust knots | rain 1hr in | rain 24hr in | rain mn in | humidity % | barometer mb |
| 20260506185017 | 77 | 94 | 2.6 | 2.6 | 0.00 | 0.00 | 0.00 | 26 | 1023.4 |
| 20260506184515 | 76 | 92 | 0.0 | 0.0 | 0.00 | 0.00 | 0.00 | 26 | 1023.6 |
| 20260506184012 | 75 | 12 | 0.9 | 0.9 | 0.00 | 0.00 | 0.00 | 27 | 1023.5 |
| 20260506183507 | 76 | 259 | 0.9 | 0.9 | 0.00 | 0.00 | 0.00 | 27 | 1023.8 |
| 20260506183005 | 75 | 52 | 0.0 | 0.0 | 0.00 | 0.00 | 0.00 | 28 | 1023.5 |
| 20260506182502 | 74 | 345 | 3.5 | 5.2 | 0.00 | 0.00 | 0.00 | 28 | 1023.6 |
| 20260506181959 | 75 | 236 | 1.7 | 1.7 | 0.00 | 0.00 | 0.00 | 29 | 1024.0 |
| 20260506181457 | 74 | 201 | 0.9 | 1.7 | 0.00 | 0.00 | 0.00 | 28 | 1023.6 |
| 20260506180953 | 74 | 209 | 0.0 | 0.9 | 0.00 | 0.00 | 0.00 | 31 | 1023.6 |
| 20260506180450 | 74 | 202 | 0.9 | 1.7 | 0.00 | 0.00 | 0.00 | 29 | 1023.8 |
| 20260506175947 | 72 | 265 | 0.9 | 1.7 | 0.00 | 0.00 | 0.00 | 30 | 1023.8 |
| 20260506175443 | 73 | 306 | 2.6 | 2.6 | 0.00 | 0.00 | 0.00 | 29 | 1023.8 |
| 20260506174940 | 72 | 124 | 0.9 | 1.7 | 0.00 | 0.00 | 0.00 | 30 | 1023.9 |
| 20260506174438 | 71 | 232 | 1.7 | 1.7 | 0.00 | 0.00 | 0.00 | 33 | 1023.9 |
| 20260506173934 | 72 | 208 | 1.7 | 1.7 | 0.00 | 0.00 | 0.00 | 32 | 1023.8 |
| 20260506173432 | 72 | 213 | 0.0 | 0.9 | 0.00 | 0.00 | 0.00 | 32 | 1023.8 |
| 20260506172929 | 71 | 218 | 1.7 | 2.6 | 0.00 | 0.00 | 0.00 | 33 | 1024.0 |
| 20260506172426 | 70 | 195 | 1.7 | 1.7 | 0.00 | 0.00 | 0.00 | 33 | 1023.8 |
| 20260506171922 | 71 | 231 | 0.0 | 0.9 | 0.00 | 0.00 | 0.00 | 32 | 1024.0 |
| 20260506171420 | 71 | 228 | 0.9 | 1.7 | 0.00 | 0.00 | 0.00 | 33 | 1023.6 |
| 20260506170918 | 70 | 215 | 1.7 | 1.7 | 0.00 | 0.00 | 0.00 | 32 | 1024.0 |
| 20260506170414 | 69 | 218 | 0.0 | 0.9 | 0.00 | 0.00 | 0.00 | 35 | 1023.8 |
| 20260506165913 | 69 | 170 | 0.9 | 0.9 | 0.00 | 0.00 | 0.00 | 36 | 1024.0 |
| 20260506165410 | 68 | 202 | 0.9 | 0.9 | 0.00 | 0.00 | 0.00 | 34 | 1023.6 |
| 20260506164901 | 68 | 180 | 2.6 | 4.3 | 0.00 | 0.00 | 0.00 | 34 | 1023.9 |
| 20260506164357 | 69 | 196 | 0.9 | 0.9 | 0.00 | 0.00 | 0.00 | 39 | 1023.9 |
| 20260506163856 | 69 | 169 | 0.0 | 0.0 | 0.00 | 0.00 | 0.00 | 38 | 1024.1 |
| 20260506163349 | 68 | 187 | 0.0 | 0.0 | 0.00 | 0.00 | 0.00 | 42 | 1024.1 |
| 20260506162845 | 68 | 173 | 0.9 | 0.9 | 0.00 | 0.00 | 0.00 | 39 | 1023.9 |
| 20260506162343 | 68 | 112 | 0.0 | 0.0 | 0.00 | 0.00 | 0.00 | 43 | 1023.8 |
| 20260506161840 | 65 | 98 | 0.0 | 0.0 | 0.00 | 0.00 | 0.00 | 40 | 1023.8 |
| 20260506161337 | 64 | 80 | 0.9 | 0.9 | 0.00 | 0.00 | 0.00 | 42 | 1023.9 |
| 20260506160835 | 66 | 161 | 0.9 | 1.7 | 0.00 | 0.00 | 0.00 | 42 | 1023.9 |
| 20260506160331 | 65 | 158 | 0.0 | 0.0 | 0.00 | 0.00 | 0.00 | 45 | 1023.5 |
| 20260506155830 | 64 | 23 | 0.9 | 0.9 | 0.00 | 0.00 | 0.00 | 44 | 1023.8 |
| 20260506155326 | 63 | 355 | 0.0 | 0.0 | 0.00 | 0.00 | 0.00 | 44 | 1023.8 |
| 20260506153439 | 62 | 344 | 2.6 | 4.3 | 0.00 | 0.00 | 0.00 | 46 | 1023.5 |
| 20260506152936 | 61 | 300 | 3.5 | 4.3 | 0.00 | 0.00 | 0.00 | 47 | 1023.6 |
| 20260506152433 | 60 | 350 | 3.5 | 4.3 | 0.00 | 0.00 | 0.00 | 48 | 1023.5 |
| 20260506151932 | 59 | 355 | 0.9 | 1.7 | 0.00 | 0.00 | 0.00 | 50 | 1023.4 |
| 20260506151428 | 59 | 359 | 3.5 | 5.2 | 0.00 | 0.00 | 0.00 | 51 | 1023.2 |
| 20260506150926 | 58 | 304 | 5.2 | 7.0 | 0.00 | 0.00 | 0.00 | 52 | 1023.4 |
| 20260506150421 | 56 | 252 | 0.9 | 1.7 | 0.00 | 0.00 | 0.00 | 58 | 1023.4 |
| 20260506145919 | 53 | 280 | 2.6 | 2.6 | 0.00 | 0.00 | 0.00 | 61 | 1023.5 |
| 20260506145415 | 53 | 296 | 3.5 | 4.3 | 0.00 | 0.00 | 0.00 | 63 | 1023.4 |
| 20260506144913 | 53 | 301 | 1.7 | 1.7 | 0.00 | 0.00 | 0.00 | 64 | 1023.4 |
| 20260506144409 | 53 | 267 | 2.6 | 2.6 | 0.00 | 0.00 | 0.00 | 64 | 1023.2 |
| 20260506143908 | 54 | 313 | 2.6 | 2.6 | 0.00 | 0.00 | 0.00 | 60 | 1023.3 |
| 20260506143404 | 54 | 288 | 2.6 | 2.6 | 0.00 | 0.00 | 0.00 | 61 | 1023.4 |
| 20260506142902 | 54 | 301 | 2.6 | 5.2 | 0.00 | 0.00 | 0.00 | 60 | 1023.2 |
| 20260506142400 | 54 | 328 | 3.5 | 5.2 | 0.00 | 0.00 | 0.00 | 59 | 1023.1 |
| 20260506141858 | 53 | 292 | 1.7 | 2.6 | 0.00 | 0.00 | 0.00 | 59 | 1023.2 |
| 20260506141356 | 54 | 339 | 1.7 | 1.7 | 0.00 | 0.00 | 0.00 | 60 | 1023.3 |
| 20260506140854 | 55 | 342 | 2.6 | 2.6 | 0.00 | 0.00 | 0.00 | 56 | 1023.0 |
| 20260506140350 | 55 | 354 | 1.7 | 2.6 | 0.00 | 0.00 | 0.00 | 55 | 1023.0 |
| 20260506135847 | 54 | 337 | 3.5 | 4.3 | 0.00 | 0.00 | 0.00 | 58 | 1022.9 |
| 20260506135344 | 55 | 17 | 3.5 | 7.0 | 0.00 | 0.00 | 0.00 | 56 | 1022.7 |
| 20260506134840 | 54 | 320 | 4.3 | 5.2 | 0.00 | 0.00 | 0.00 | 55 | 1022.9 |
| 20260506134337 | 54 | 18 | 4.3 | 7.8 | 0.00 | 0.00 | 0.00 | 58 | 1022.4 |
| 20260506133834 | 54 | 21 | 6.1 | 7.8 | 0.00 | 0.00 | 0.00 | 57 | 1022.6 |
| 20260506133331 | 53 | 10 | 5.2 | 6.1 | 0.00 | 0.00 | 0.00 | 58 | 1022.5 |
| 20260506132827 | 53 | 355 | 6.1 | 7.8 | 0.00 | 0.00 | 0.00 | 58 | 1022.4 |
| 20260506132325 | 51 | 46 | 2.6 | 2.6 | 0.00 | 0.00 | 0.00 | 64 | 1022.3 |
| 20260506131823 | 51 | 351 | 1.7 | 1.7 | 0.00 | 0.00 | 0.00 | 67 | 1022.4 |
| 20260506131318 | 53 | 280 | 2.6 | 2.6 | 0.00 | 0.00 | 0.00 | 62 | 1022.1 |
| 20260506130816 | 53 | 312 | 3.5 | 5.2 | 0.00 | 0.00 | 0.00 | 59 | 1022.3 |
| 20260506130312 | 53 | 32 | 0.9 | 1.7 | 0.00 | 0.00 | 0.00 | 60 | 1022.2 |
| 20260506125810 | 53 | 29 | 0.9 | 1.7 | 0.00 | 0.00 | 0.00 | 61 | 1022.3 |
| 20260506125308 | 53 | 327 | 1.7 | 1.7 | 0.00 | 0.00 | 0.00 | 62 | 1021.9 |
| 20260506124807 | 52 | 33 | 2.6 | 2.6 | 0.00 | 0.00 | 0.00 | 64 | 1022.1 |
| 20260506124303 | 51 | 57 | 1.7 | 2.6 | 0.00 | 0.00 | 0.00 | 67 | 1021.9 |
| 20260506123801 | 49 | 297 | 0.9 | 1.7 | 0.00 | 0.00 | 0.00 | 74 | 1021.7 |
| 20260506123259 | 49 | 279 | 1.7 | 2.6 | 0.00 | 0.00 | 0.00 | 74 | 1021.8 |
| 20260506122755 | 49 | 293 | 2.6 | 4.3 | 0.00 | 0.00 | 0.00 | 73 | 1021.7 |
| 20260506122253 | 49 | 281 | 0.9 | 1.7 | 0.00 | 0.00 | 0.00 | 74 | 1021.7 |
| 20260506121751 | 49 | 275 | 0.9 | 1.7 | 0.00 | 0.00 | 0.00 | 73 | 1021.6 |
| 20260506121248 | 50 | 316 | 1.7 | 2.6 | 0.00 | 0.00 | 0.00 | 72 | 1021.7 |
| 20260506120745 | 50 | 294 | 0.9 | 1.7 | 0.00 | 0.00 | 0.00 | 71 | 1021.5 |
| 20260506120243 | 50 | 266 | 0.9 | 1.7 | 0.00 | 0.00 | 0.00 | 70 | 1021.4 |
| 20260506115740 | 50 | 273 | 0.9 | 1.7 | 0.00 | 0.00 | 0.00 | 71 | 1021.6 |
| 20260506115238 | 50 | 277 | 1.7 | 1.7 | 0.00 | 0.00 | 0.00 | 72 | 1021.5 |
| 20260506114736 | 50 | 281 | 0.9 | 1.7 | 0.00 | 0.00 | 0.00 | 72 | 1021.4 |
| 20260506114233 | 50 | 293 | 0.9 | 0.9 | 0.00 | 0.00 | 0.00 | 71 | 1021.3 |
| 20260506113731 | 50 | 333 | 2.6 | 2.6 | 0.00 | 0.00 | 0.00 | 72 | 1021.5 |
| 20260506113228 | 50 | 253 | 0.9 | 0.9 | 0.00 | 0.00 | 0.00 | 72 | 1021.2 |
| 20260506112724 | 50 | 305 | 1.7 | 2.6 | 0.00 | 0.00 | 0.00 | 71 | 1021.3 |
| 20260506112222 | 50 | 349 | 3.5 | 4.3 | 0.00 | 0.00 | 0.00 | 70 | 1021.6 |
| 20260506111720 | 51 | 61 | 0.0 | 0.0 | 0.00 | 0.00 | 0.00 | 69 | 1021.5 |
| 20260506111218 | 51 | 313 | 0.9 | 0.9 | 0.00 | 0.00 | 0.00 | 69 | 1021.3 |
| 20260506110714 | 51 | 312 | 0.9 | 0.9 | 0.00 | 0.00 | 0.00 | 68 | 1021.3 |
| 20260506110212 | 52 | 341 | 1.7 | 1.7 | 0.00 | 0.00 | 0.00 | 67 | 1021.4 |
| 20260506105708 | 52 | 348 | 3.5 | 5.2 | 0.00 | 0.00 | 0.00 | 66 | 1021.3 |
| 20260506105205 | 53 | 339 | 0.9 | 1.7 | 0.00 | 0.00 | 0.00 | 64 | 1021.2 |
| 20260506104704 | 53 | 330 | 3.5 | 4.3 | 0.00 | 0.00 | 0.00 | 63 | 1021.3 |
| 20260506104201 | 54 | 5 | 1.7 | 1.7 | 0.00 | 0.00 | 0.00 | 62 | 1020.9 |
| 20260506103658 | 53 | 307 | 2.6 | 2.6 | 0.00 | 0.00 | 0.00 | 63 | 1020.8 |
| 20260506103155 | 54 | 353 | 3.5 | 4.3 | 0.00 | 0.00 | 0.00 | 63 | 1020.9 |
| 20260506102653 | 54 | 313 | 4.3 | 6.1 | 0.00 | 0.00 | 0.00 | 63 | 1021.0 |
| 20260506102150 | 54 | 336 | 2.6 | 2.6 | 0.00 | 0.00 | 0.00 | 63 | 1021.0 |
| 20260506101647 | 54 | 333 | 2.6 | 2.6 | 0.00 | 0.00 | 0.00 | 64 | 1020.7 |
| 20260506101144 | 54 | 308 | 2.6 | 2.6 | 0.00 | 0.00 | 0.00 | 63 | 1020.6 |
| 20260506100642 | 52 | 331 | 1.7 | 1.7 | 0.00 | 0.00 | 0.00 | 68 | 1020.9 |
| 20260506100140 | 52 | 255 | 1.7 | 1.7 | 0.00 | 0.00 | 0.00 | 72 | 1020.7 |
| 20260506095638 | 52 | 319 | 1.7 | 2.6 | 0.00 | 0.00 | 0.00 | 72 | 1020.7 |
| 20260506095134 | 51 | 2 | 2.6 | 4.3 | 0.00 | 0.00 | 0.00 | 73 | 1021.0 |
| 20260506094632 | 51 | 332 | 0.0 | 0.0 | 0.00 | 0.00 | 0.00 | 72 | 1020.8 |
| 20260506094130 | 52 | 58 | 0.0 | 0.0 | 0.00 | 0.00 | 0.00 | 71 | 1020.9 |
| 20260506093628 | 52 | 6 | 1.7 | 1.7 | 0.00 | 0.00 | 0.00 | 69 | 1020.8 |
| 20260506093125 | 52 | 102 | 0.0 | 0.0 | 0.00 | 0.00 | 0.00 | 71 | 1020.7 |
| 20260506092623 | 52 | 102 | 0.9 | 0.9 | 0.00 | 0.00 | 0.00 | 70 | 1020.9 |
| 20260506092119 | 51 | 98 | 0.0 | 0.9 | 0.00 | 0.00 | 0.00 | 71 | 1020.7 |
| 20260506091617 | 51 | 93 | 0.0 | 0.9 | 0.00 | 0.00 | 0.00 | 72 | 1021.0 |
| 20260506091115 | 52 | 93 | 0.0 | 0.0 | 0.00 | 0.00 | 0.00 | 72 | 1020.8 |
| 20260506090613 | 52 | 93 | 0.0 | 0.9 | 0.00 | 0.00 | 0.00 | 71 | 1020.7 |
| 20260506090108 | 51 | 1 | 0.0 | 0.0 | 0.00 | 0.00 | 0.00 | 72 | 1020.9 |
| 20260506085605 | 52 | 356 | 0.9 | 1.7 | 0.00 | 0.00 | 0.00 | 71 | 1020.7 |
| 20260506085102 | 52 | 278 | 0.0 | 0.0 | 0.00 | 0.00 | 0.00 | 70 | 1020.7 |
| 20260506084559 | 53 | 278 | 0.9 | 0.9 | 0.00 | 0.00 | 0.00 | 70 | 1020.9 |
| 20260506084055 | 53 | 288 | 0.0 | 0.0 | 0.00 | 0.00 | 0.00 | 67 | 1020.6 |
| 20260506083552 | 53 | 314 | 1.7 | 1.7 | 0.00 | 0.00 | 0.00 | 66 | 1020.9 |
| 20260506083050 | 53 | 16 | 0.9 | 0.9 | 0.00 | 0.00 | 0.00 | 67 | 1020.6 |
| 20260506082546 | 53 | 337 | 1.7 | 1.7 | 0.00 | 0.00 | 0.00 | 69 | 1020.7 |
| 20260506082042 | 53 | 346 | 1.7 | 1.7 | 0.00 | 0.00 | 0.00 | 68 | 1020.6 |
| 20260506081540 | 53 | 347 | 0.9 | 0.9 | 0.00 | 0.00 | 0.00 | 66 | 1020.5 |
| 20260506081037 | 54 | 326 | 0.9 | 2.6 | 0.00 | 0.00 | 0.00 | 66 | 1020.5 |
| 20260506080535 | 55 | 284 | 1.7 | 2.6 | 0.00 | 0.00 | 0.00 | 58 | 1020.6 |
| 20260506073519 | 54 | 345 | 3.5 | 4.3 | 0.00 | 0.00 | 0.00 | 61 | 1020.7 |
| 20260506073015 | 54 | 356 | 0.9 | 1.7 | 0.00 | 0.00 | 0.00 | 66 | 1020.6 |
| 20260506072512 | 54 | 285 | 2.6 | 4.3 | 0.00 | 0.00 | 0.00 | 66 | 1020.6 |
| 20260506072010 | 54 | 244 | 0.9 | 1.7 | 0.00 | 0.00 | 0.00 | 67 | 1020.6 |
| 20260506071508 | 54 | 270 | 1.7 | 1.7 | 0.00 | 0.00 | 0.00 | 67 | 1020.4 |
| 20260506071005 | 53 | 303 | 0.9 | 0.9 | 0.00 | 0.00 | 0.00 | 69 | 1020.1 |
| 20260506070502 | 53 | 316 | 1.7 | 1.7 | 0.00 | 0.00 | 0.00 | 71 | 1020.4 |
| 20260506062439 | 52 | 311 | 0.0 | 0.0 | 0.00 | 0.12 | 0.12 | 70 | 1020.0 |
| 20260506061935 | 52 | 355 | 0.9 | 1.7 | 0.00 | 0.12 | 0.12 | 70 | 1020.0 |
| 20260506061432 | 52 | 275 | 0.0 | 0.0 | 0.00 | 0.12 | 0.12 | 70 | 1020.1 |
| 20260506060930 | 52 | 275 | 0.0 | 0.0 | 0.00 | 0.12 | 0.12 | 69 | 1020.0 |
| 20260506060428 | 52 | 273 | 0.0 | 0.9 | 0.00 | 0.12 | 0.12 | 70 | 1020.1 |
| 20260506051400 | 53 | 263 | 0.0 | 0.0 | 0.00 | 0.12 | 0.12 | 68 | 1019.3 |
| 20260506050857 | 53 | 263 | 0.0 | 0.0 | 0.00 | 0.12 | 0.12 | 67 | 1019.6 |
| 20260506050354 | 53 | 263 | 1.7 | 1.7 | 0.00 | 0.12 | 0.12 | 68 | 1019.5 |
| 20260506044845 | 54 | 316 | 1.7 | 2.6 | 0.00 | 0.12 | 0.12 | 65 | 1019.5 |
| 20260506044343 | 53 | 244 | 0.9 | 1.7 | 0.00 | 0.12 | 0.12 | 67 | 1019.2 |
| 20260506043839 | 54 | 264 | 0.9 | 0.9 | 0.00 | 0.12 | 0.12 | 68 | 1019.1 |
| 20260506043337 | 54 | 266 | 0.9 | 0.9 | 0.00 | 0.12 | 0.12 | 68 | 1019.0 |
| 20260506042835 | 55 | 265 | 0.9 | 0.9 | 0.00 | 0.12 | 0.12 | 67 | 1019.0 |
| 20260506042334 | 55 | 269 | 0.9 | 0.9 | 0.00 | 0.12 | 0.12 | 67 | 1019.0 |
| 20260506041832 | 55 | 310 | 3.5 | 4.3 | 0.00 | 0.12 | 0.12 | 65 | 1018.5 |
| 20260506041329 | 55 | 302 | 2.6 | 2.6 | 0.00 | 0.12 | 0.12 | 64 | 1018.8 |
| 20260506040826 | 55 | 343 | 3.5 | 4.3 | 0.00 | 0.12 | 0.12 | 63 | 1018.8 |
| 20260506040323 | 55 | 344 | 2.6 | 2.6 | 0.00 | 0.12 | 0.12 | 66 | 1018.7 |
| 20260506035819 | 55 | 285 | 4.3 | 5.2 | 0.00 | 0.12 | 0.12 | 67 | 1018.4 |
| 20260506035317 | 55 | 279 | 0.9 | 1.7 | 0.00 | 0.12 | 0.12 | 65 | 1018.4 |
| 20260506034814 | 56 | 297 | 1.7 | 1.7 | 0.00 | 0.12 | 0.12 | 64 | 1018.4 |
| 20260506034311 | 56 | 275 | 1.7 | 2.6 | 0.00 | 0.12 | 0.12 | 63 | 1018.2 |
| 20260506033808 | 56 | 270 | 0.9 | 1.7 | 0.00 | 0.12 | 0.12 | 61 | 1018.0 |
| 20260506033305 | 56 | 286 | 3.5 | 4.3 | 0.00 | 0.12 | 0.12 | 62 | 1018.0 |
| 20260506032802 | 57 | 268 | 1.7 | 4.3 | 0.00 | 0.12 | 0.12 | 62 | 1018.0 |
| 20260506032259 | 57 | 304 | 4.3 | 5.2 | 0.00 | 0.12 | 0.12 | 60 | 1017.9 |
| 20260506031755 | 57 | 291 | 3.5 | 4.3 | 0.00 | 0.12 | 0.12 | 59 | 1018.0 |
| 20260506031253 | 57 | 292 | 5.2 | 7.0 | 0.00 | 0.12 | 0.12 | 57 | 1017.6 |
| 20260506030751 | 58 | 293 | 4.3 | 5.2 | 0.00 | 0.12 | 0.12 | 55 | 1017.6 |
| 20260506030248 | 58 | 289 | 2.6 | 2.6 | 0.00 | 0.12 | 0.12 | 54 | 1017.4 |
| 20260506025745 | 59 | 318 | 2.6 | 2.6 | 0.00 | 0.12 | 0.12 | 53 | 1017.2 |
| 20260506025241 | 59 | 327 | 2.6 | 2.6 | 0.00 | 0.12 | 0.12 | 53 | 1017.3 |
| 20260506024738 | 59 | 331 | 2.6 | 2.6 | 0.00 | 0.12 | 0.12 | 51 | 1017.2 |
| 20260506024235 | 60 | 279 | 2.6 | 4.3 | 0.00 | 0.12 | 0.12 | 50 | 1017.2 |
| 20260506023731 | 60 | 303 | 1.7 | 1.7 | 0.00 | 0.12 | 0.12 | 50 | 1017.1 |
| 20260506023228 | 60 | 301 | 0.9 | 1.7 | 0.00 | 0.12 | 0.12 | 49 | 1016.8 |
| 20260506022725 | 60 | 322 | 2.6 | 4.3 | 0.00 | 0.12 | 0.12 | 49 | 1016.7 |
| 20260506022223 | 61 | 309 | 4.3 | 6.1 | 0.00 | 0.12 | 0.12 | 48 | 1017.0 |
| 20260506021721 | 61 | 304 | 0.9 | 1.7 | 0.00 | 0.12 | 0.12 | 46 | 1016.7 |
| 20260506021218 | 61 | 2 | 4.3 | 6.1 | 0.00 | 0.12 | 0.12 | 44 | 1016.8 |
| 20260506020714 | 61 | 251 | 1.7 | 1.7 | 0.00 | 0.12 | 0.12 | 46 | 1016.8 |
| 20260506020212 | 61 | 350 | 2.6 | 2.6 | 0.00 | 0.12 | 0.12 | 45 | 1016.6 |
| 20260506015709 | 61 | 327 | 3.5 | 4.3 | 0.00 | 0.12 | 0.12 | 44 | 1017.0 |
| 20260506015207 | 61 | 296 | 6.1 | 7.8 | 0.00 | 0.12 | 0.12 | 43 | 1016.7 |
| 20260506014704 | 62 | 346 | 7.0 | 8.7 | 0.00 | 0.12 | 0.12 | 42 | 1016.7 |
| 20260506014159 | 62 | 340 | 4.3 | 7.0 | 0.00 | 0.12 | 0.12 | 40 | 1016.6 |
| 20260506013657 | 62 | 256 | 5.2 | 7.0 | 0.00 | 0.12 | 0.12 | 40 | 1016.7 |
| 20260506013154 | 63 | 9 | 7.8 | 9.6 | 0.00 | 0.12 | 0.12 | 39 | 1016.7 |
| 20260506012650 | 63 | 1 | 8.7 | 9.6 | 0.00 | 0.12 | 0.12 | 38 | 1016.4 |
| 20260506012147 | 63 | 2 | 4.3 | 6.1 | 0.00 | 0.12 | 0.12 | 38 | 1016.3 |
| 20260506011639 | 63 | 26 | 5.2 | 7.0 | 0.00 | 0.12 | 0.12 | 39 | 1016.3 |
| 20260506011136 | 64 | 302 | 6.1 | 11.3 | 0.00 | 0.12 | 0.12 | 38 | 1016.4 |
| 20260506010635 | 64 | 27 | 7.0 | 11.3 | 0.00 | 0.12 | 0.12 | 38 | 1016.3 |
| 20260506010131 | 64 | 317 | 6.1 | 7.0 | 0.00 | 0.12 | 0.12 | 38 | 1016.2 |
| 20260506005628 | 65 | 14 | 4.3 | 7.0 | 0.00 | 0.12 | 0.12 | 37 | 1016.0 |
| 20260506005124 | 65 | 359 | 7.0 | 7.8 | 0.00 | 0.12 | 0.12 | 36 | 1016.0 |
| 20260506004621 | 65 | 52 | 7.0 | 8.7 | 0.00 | 0.12 | 0.12 | 36 | 1015.9 |
| 20260506004118 | 65 | 345 | 4.3 | 7.0 | 0.00 | 0.12 | 0.12 | 36 | 1016.0 |
| 20260506003614 | 65 | 333 | 4.3 | 6.1 | 0.00 | 0.12 | 0.12 | 36 | 1016.0 |
| 20260506003110 | 65 | 26 | 7.0 | 8.7 | 0.00 | 0.12 | 0.12 | 37 | 1015.8 |
| 20260506002606 | 66 | 352 | 4.3 | 6.1 | 0.00 | 0.12 | 0.12 | 36 | 1015.8 |
| 20260506002102 | 67 | 17 | 5.2 | 6.1 | 0.00 | 0.12 | 0.12 | 36 | 1015.7 |
| 20260506001559 | 67 | 309 | 2.6 | 4.3 | 0.00 | 0.12 | 0.12 | 35 | 1015.7 |
| 20260506001056 | 67 | 264 | 0.9 | 0.9 | 0.00 | 0.12 | 0.12 | 32 | 1015.6 |
| 20260506000553 | 67 | 293 | 3.5 | 4.3 | 0.00 | 0.12 | 0.12 | 32 | 1015.7 |
| 20260506000051 | 67 | 266 | 2.6 | 2.6 | 0.00 | 0.12 | 0.12 | 32 | 1015.7 |
| 20260505235548 | 67 | 0 | 1.7 | 1.7 | 0.00 | 0.12 | 0.12 | 32 | 1015.6 |
| 20260505235045 | 68 | 295 | 4.3 | 5.2 | 0.00 | 0.12 | 0.12 | 31 | 1015.5 |
| 20260505234542 | 67 | 243 | 1.7 | 1.7 | 0.00 | 0.12 | 0.12 | 31 | 1015.1 |
| 20260505234039 | 67 | 26 | 1.7 | 2.6 | 0.00 | 0.12 | 0.12 | 31 | 1015.4 |
| 20260505233536 | 68 | 19 | 0.9 | 1.7 | 0.00 | 0.12 | 0.12 | 31 | 1015.5 |
| 20260505233034 | 67 | 111 | 0.0 | 0.0 | 0.00 | 0.12 | 0.12 | 36 | 1015.6 |
| 20260505232531 | 68 | 107 | 0.0 | 0.9 | 0.00 | 0.12 | 0.12 | 35 | 1015.7 |
| 20260505232029 | 67 | 327 | 0.0 | 0.9 | 0.00 | 0.12 | 0.12 | 34 | 1015.4 |
| 20260505231525 | 66 | 206 | 2.6 | 2.6 | 0.00 | 0.12 | 0.12 | 36 | 1015.8 |
| 20260505231024 | 67 | 227 | 1.7 | 1.7 | 0.00 | 0.12 | 0.12 | 37 | 1015.6 |
| 20260505230521 | 68 | 249 | 0.9 | 1.7 | 0.00 | 0.12 | 0.12 | 36 | 1016.0 |
| 20260505230018 | 68 | 250 | 1.7 | 1.7 | 0.00 | 0.12 | 0.12 | 34 | 1015.8 |
| 20260505225514 | 67 | 311 | 0.0 | 0.9 | 0.00 | 0.12 | 0.12 | 35 | 1015.7 |
| 20260505225010 | 67 | 27 | 2.6 | 4.3 | 0.00 | 0.12 | 0.12 | 36 | 1015.9 |
| 20260505224508 | 67 | 280 | 0.9 | 2.6 | 0.00 | 0.12 | 0.12 | 39 | 1015.9 |
| 20260505224005 | 65 | 152 | 0.9 | 1.7 | 0.00 | 0.12 | 0.12 | 39 | 1016.2 |
| 20260505223502 | 66 | 82 | 0.9 | 1.7 | 0.00 | 0.12 | 0.12 | 36 | 1015.9 |
| 20260505222958 | 66 | 308 | 1.7 | 1.7 | 0.00 | 0.12 | 0.12 | 39 | 1016.3 |
| 20260505222455 | 65 | 90 | 0.9 | 1.7 | 0.00 | 0.12 | 0.12 | 39 | 1016.3 |
| 20260505221950 | 66 | 340 | 0.9 | 1.7 | 0.00 | 0.12 | 0.12 | 41 | 1016.2 |
| 20260505221448 | 67 | 202 | 0.0 | 0.0 | 0.00 | 0.12 | 0.12 | 44 | 1016.4 |
| 20260505220945 | 65 | 143 | 4.3 | 5.2 | 0.00 | 0.12 | 0.12 | 39 | 1016.3 |
| 20260505220441 | 64 | 216 | 0.9 | 0.9 | 0.00 | 0.12 | 0.12 | 38 | 1016.4 |
| 20260505215939 | 64 | 319 | 4.3 | 5.2 | 0.00 | 0.12 | 0.12 | 42 | 1016.5 |
| 20260505215437 | 66 | 216 | 0.0 | 0.9 | 0.00 | 0.12 | 0.12 | 40 | 1016.4 |
| 20260505214935 | 65 | 216 | 0.9 | 0.9 | 0.00 | 0.12 | 0.12 | 42 | 1016.6 |
| 20260505214432 | 65 | 192 | 0.0 | 0.9 | 0.00 | 0.12 | 0.12 | 43 | 1016.5 |
| 20260505213929 | 64 | 172 | 0.9 | 1.7 | 0.00 | 0.12 | 0.12 | 44 | 1016.7 |
| 20260505213427 | 64 | 227 | 1.7 | 1.7 | 0.00 | 0.12 | 0.12 | 45 | 1016.8 |
| 20260505212923 | 64 | 248 | 1.7 | 2.6 | 0.00 | 0.12 | 0.12 | 46 | 1016.8 |
| 20260505212420 | 63 | 27 | 2.6 | 2.6 | 0.00 | 0.12 | 0.12 | 46 | 1016.7 |
| 20260505211916 | 62 | 315 | 3.5 | 4.3 | 0.00 | 0.12 | 0.12 | 44 | 1017.0 |
| 20260505211414 | 63 | 118 | 0.9 | 1.7 | 0.00 | 0.12 | 0.12 | 45 | 1017.2 |
| 20260505210910 | 62 | 142 | 2.6 | 2.6 | 0.00 | 0.12 | 0.12 | 45 | 1016.8 |
| 20260505210408 | 63 | 185 | 0.9 | 0.9 | 0.00 | 0.12 | 0.12 | 45 | 1017.1 |
| 20260505205904 | 63 | 196 | 0.0 | 0.9 | 0.00 | 0.12 | 0.12 | 44 | 1016.8 |
| 20260505205403 | 62 | 178 | 1.7 | 1.7 | 0.00 | 0.12 | 0.12 | 49 | 1017.1 |
| 20260505204859 | 62 | 234 | 3.5 | 4.3 | 0.00 | 0.12 | 0.12 | 43 | 1017.2 |
| 20260505204357 | 63 | 239 | 3.5 | 4.3 | 0.00 | 0.12 | 0.12 | 46 | 1017.1 |
| 20260505203854 | 62 | 196 | 1.7 | 2.6 | 0.00 | 0.12 | 0.12 | 46 | 1017.2 |
| 20260505203350 | 64 | 205 | 3.5 | 5.2 | 0.00 | 0.12 | 0.12 | 45 | 1017.2 |
| 20260505202847 | 63 | 196 | 0.9 | 0.9 | 0.00 | 0.12 | 0.12 | 52 | 1017.0 |
| 20260505202343 | 62 | 266 | 0.0 | 0.9 | 0.00 | 0.12 | 0.12 | 57 | 1017.0 |
| 20260505201840 | 63 | 58 | 2.6 | 2.6 | 0.00 | 0.12 | 0.12 | 46 | 1017.1 |
| 20260505201337 | 62 | 185 | 0.0 | 0.0 | 0.00 | 0.12 | 0.12 | 56 | 1017.1 |
| 20260505200836 | 60 | 25 | 1.7 | 1.7 | 0.00 | 0.12 | 0.12 | 51 | 1017.3 |
| 20260505200332 | 60 | 31 | 0.9 | 0.9 | 0.00 | 0.12 | 0.12 | 51 | 1017.3 |
| 20260505195827 | 62 | 8 | 2.6 | 2.6 | 0.00 | 0.12 | 0.12 | 54 | 1017.5 |
| 20260505195325 | 61 | 174 | 1.7 | 1.7 | 0.00 | 0.12 | 0.12 | 52 | 1017.9 |
| 20260505194822 | 60 | 221 | 0.9 | 1.7 | 0.00 | 0.12 | 0.12 | 50 | 1017.7 |
| 20260505194319 | 59 | 330 | 2.6 | 4.3 | 0.00 | 0.12 | 0.12 | 54 | 1017.6 |
| 20260505193814 | 60 | 74 | 0.0 | 0.9 | 0.00 | 0.12 | 0.12 | 55 | 1017.5 |
| 20260505193312 | 59 | 355 | 0.9 | 1.7 | 0.00 | 0.12 | 0.12 | 55 | 1017.6 |
| 20260505192810 | 60 | 73 | 0.0 | 0.0 | 0.00 | 0.12 | 0.12 | 57 | 1017.7 |
| 20260505192310 | 60 | 124 | 1.7 | 2.6 | 0.00 | 0.12 | 0.12 | 55 | 1018.0 |
| 20260505191806 | 58 | 16 | 0.9 | 0.9 | 0.00 | 0.12 | 0.12 | 54 | 1017.7 |
| 20260505191304 | 58 | 22 | 1.7 | 1.7 | 0.00 | 0.12 | 0.12 | 57 | 1017.6 |
| 20260505190800 | 59 | 96 | 1.7 | 1.7 | 0.00 | 0.12 | 0.12 | 54 | 1017.5 |
| 20260505190255 | 59 | 110 | 0.9 | 1.7 | 0.00 | 0.12 | 0.12 | 54 | 1017.6 |
| 20260505185752 | 59 | 144 | 1.7 | 2.6 | 0.00 | 0.12 | 0.12 | 53 | 1017.9 |